Home > Weather > Bathurst > Past weeks

Flag for Canada Weather for the Past 2 Weeks in Bathurst, New Brunswick, Canada

Now
-4 °F

Clear.


Feels Like: -15 °F
Forecast: -8 / -1 °F
Wind: 5 mph from West

Location: Bathurst Airport

Current Time: Feb 14, 2016 at 4:47:28 AM

Latest Report: Feb 14, 2016 at 4:00 AM


Visibility: 15 mi

Pressure: 29.90 "Hg

Humidity: 71%

Dew point: -11 °F

Location of BathurstLocation

Historic Weather in Bathurst — Graph

°F

Bathurst Temperature Yesterday

Maximum temperature yesterday: 10 °F (at 3:00 PM)
Minimum temperature yesterday: -22 °F (at 8:00 AM)
Average temperature yesterday: -7 °F

High & Low Weather Summary for the Past Weeks

 TemperatureHumidityPressure
High46 °F (Feb 1, 3:00 PM)100% (Feb 4, 12:00 AM)30.52 "Hg (Feb 4, 12:00 AM)
Low-22 °F (Feb 13, 8:00 AM)32% (Feb 7, 2:00 PM)29.27 "Hg (Feb 1, 2:00 PM)
Average17 °F74%29.89 "Hg
* Reported Jan 30 3:00 AM — Feb 14 3:00 AM, Bathurst, Weather by CustomWeather, © 2016

Note: Actual official high and low records may vary slightly from our data, if they occured in-between our weather recording intervals... More about our weather records

Advertising

Bathurst Weather History for the Previous 24 Hours

 ConditionsComfort  
Time TempWeatherWind HumidityBarometerVisibility
3:00 AM
Sun, Feb 14
-4 °FClear.5 mph71%29.90 "Hg15 mi
2:00 AM0 °FPassing clouds.8 mph71%29.88 "Hg15 mi
1:00 AM-2 °FPassing clouds.5 mph77%29.87 "Hg15 mi
12:00 AM-11 °FClear.6 mph76%29.86 "Hg15 mi
11:00 PM
Sat, Feb 13
-13 °FClear.5 mph76%29.86 "Hg15 mi
10:00 PM-11 °FPassing clouds.2 mph76%29.86 "Hg15 mi
9:00 PM-9 °FPassing clouds.2 mph84%29.87 "Hg15 mi
8:00 PM-6 °FClear.No wind84%29.86 "Hg15 mi
7:00 PM0 °FClear.No wind78%29.85 "Hg15 mi
6:00 PM7 °FPassing clouds.3 mph72%29.83 "Hg15 mi
5:00 PM9 °FPassing clouds.6 mph66%29.83 "Hg15 mi
4:00 PM10 °FPassing clouds.6 mph61%29.83 "Hg15 mi
3:00 PM10 °FBroken clouds.8 mph61%29.83 "Hg15 mi
2:00 PM9 °FBroken clouds.6 mph66%29.85 "Hg15 mi
1:00 PM9 °FBroken clouds.5 mph56%29.87 "Hg15 mi
12:00 PM7 °FPartly sunny.6 mph61%29.88 "Hg15 mi
11:00 AM5 °FPassing clouds.6 mph66%29.91 "Hg15 mi
10:00 AM-2 °FPassing clouds.2 mph77%29.93 "Hg15 mi
9:00 AM-15 °FOvercast.2 mph76%29.96 "Hg15 mi
8:00 AM-22 °FPassing clouds.3 mph68%29.97 "Hg15 mi
7:00 AM-20 °FPassing clouds.2 mph75%29.98 "Hg15 mi
6:00 AM-18 °FClear.3 mph75%29.98 "Hg15 mi
5:00 AM-20 °FClear.3 mph75%29.99 "Hg15 mi
4:00 AM-20 °FClear.2 mph75%30.00 "Hg15 mi
Weather by CustomWeather, © 2016

See weather overviewHow to use our weather pages